Weather in Mtsensk

Russia / Oryol Oblast     53°16′44″N   36°34′30″E
temp.,
°C
wind,
m/s
gust,
m/s
humid.,
%
clouds,
%
prec.,
mm/h
press.,
hPa
HPBL,
m
15 may, sat
sat1500:00+14sse339449 1.9 100935
03:00+13sse229372 1.9 100821
06:00+13s35950 0.0 1008113
09:00+17ssw5883100 0.0 1010504
12:00+20ssw57654 0.2 10101279
15:00+20ssw79667 0.7 10101533
18:00+17ssw610805 1.3 1011858
21:00+14ssw41093100 1.3 1012234
16 may, sun
sun1600:00+12ssw36940 0.0 1012113
03:00+11s36945 0.0 101398
06:00+12s3691100 0.0 1013155
09:00+16ssw468070 0.0 1014467
12:00+20sw57650 0.1 10141224
15:00+21sw57570 0.2 10141766
18:00+21sw2468100 0.0 1013422
21:00+16ene2277100 0.0 101411
17 may, mon
mon1700:00+14ene338687 0.0 101343
03:00+13e498980 0.3 1013151
06:00+14ene41193100 0.6 1012238
09:00+19e6127789 0.6 1010500
12:00+23ese71163100 0.0 1009740
15:00+24ese71463100 0.0 10081306
18:00+23se7146612 0.0 1006657
21:00+19ese6167415 0.0 1006435
18 may, tue
tue1800:00+17se61478100 0.0 1005366
03:00+16se61386100 0.0 1005322
06:00+16sse5119494 0.0 1005449
09:00+18s7107998 0.0 1006914
12:00+16ssw5883100 0.1 1008808
15:00+19ssw4670100 0.1 10081231
18:00+17s4782100 2.6 1007268
21:00+15sse3390100 3.8 100745
19 may, wed
wed1900:00+14se3594100 0.0 100684
03:00+13se3694100 0.0 1005109
06:00+13sse3995100 0.4 1004326
09:00+14ssw4591100 0.8 1003533
12:00+12w101493100 3.6 10041014
15:00+14wsw71187100 8.8 10071023
18:00+15wsw610820 0.9 10071085
21:00+11sw411920 1.1 1010240